User: anonymous   Login
Location: ???????
(55.4362°N, 38.1183°E)
Time: 06:07:22
(UTC+00:00)
Language:

Cosmos 1464 Rocket - Orbit

View from above orbital plane
View from above orbital plane
View from above satellite
View from above satellite

Ground track
Ground track

The orbit data is extracted from the following two-line orbital elements,

1 14085U 83048B   21261.62157886  .00000052  00000-0  36990-4 0  9994
2 14085  82.9478  15.9609 0034798  79.3266 281.1807 13.76324685924199
Epoch (UTC): 18 September 2021 14:55:04
Eccentricity: 0.0034798
inclination: 82.9478°
perigee height: 951 km
apogee height: 1002 km
right ascension of ascending node: 15.9609°
argument of perigee: 79.3266°
revolutions per day: 13.76324685
mean anomaly at epoch: 281.1807°
orbit number at epoch: 92419

The dashed part of the orbit path shows where the satellite is in the earth's shadow,  

DLR